Weather History for KITH - November, 2012

Change the Weather History Date:

Wednesday, November 21, 2012

  Actual Average Record
Temperature  
Mean Temperature 38 °F -  
Max Temperature 50 °F 44 °F 72 °F (1991)
Min Temperature 27 °F 29 °F 7 °F (1951)
Degree Days  
Heating Degree Days 26    
Moisture  
Dew Point 30 °F    
Average Humidity 84    
Maximum Humidity 100    
Minimum Humidity 50    
Precipitation  
Precipitation 0.00 in - - ()
Sea Level Pressure  
Sea Level Pressure 30.24 in    
Wind  
Wind Speed 2 mph (NE)    
Max Wind Speed 7 mph    
Max Gust Speed -    
Visibility 7 miles    
Events      
Averages and records for this station are not official NWS values.
T = Trace of Precipitation, MM = Missing Value Source: NWS Daily Summary

Daily Weather History Graph

Daily Weather History Graph

Search for Another Location

Airport or City:

Trip Planner

Search our weather history database for the weather conditions in past years. The results will help you decide how hot, cold, wet, or windy it might be!

Date:

Astronomy

Nov. 21, 2012 Rise Set
Actual Time 7:04 AM EST 4:38 PM EST
Civil Twilight 6:34 AM EST 5:09 PM EST
Nautical Twilight 5:59 AM EST 5:43 PM EST
Astronomical Twilight 5:26 AM EST 6:17 PM EST
Moon 1:01 PM EST (11/21) 12:13 AM EST (11/21)
Length of Visible Light 10h 35m
Length of Day
9h 33m
First Quarter, 61% of the Moon is Illuminated
Nov 21
First Quarter
Nov 28
Full
Dec 6
Last Quarter
Dec 13
New
Dec 20
First Quarter

Hourly Weather History & Observations

Time (EST) Temp. Windchill Dew Point Humidity Pressure Visibility Wind Dir Wind Speed Gust Speed Precip Events Conditions
12:56 AM 29.1 °F - 28.0 °F 96% 30.19 in 4.0 mi Calm Calm - N/A   Clear
1:56 AM 29.1 °F - 28.0 °F 96% 30.19 in 3.0 mi Calm Calm - N/A   Clear
2:56 AM 30.0 °F 24.1 °F 29.1 °F 96% 30.20 in 5.0 mi East 5.8 mph - N/A   Clear
3:56 AM 30.0 °F - 29.1 °F 96% 30.20 in 6.0 mi Calm Calm - N/A   Clear
4:56 AM 29.1 °F 25.4 °F 27.1 °F 92% 30.21 in 6.0 mi ENE 3.5 mph - N/A   Clear
5:56 AM 27.1 °F - 26.1 °F 96% 30.23 in 5.0 mi Calm Calm - N/A   Clear
6:23 AM 28.4 °F 24.6 °F 26.6 °F 93% 30.20 in 6.0 mi NE 3.5 mph - N/A   Partly Cloudy
6:56 AM 27.1 °F 21.8 °F 27.1 °F 100% 30.25 in 5.0 mi East 4.6 mph - N/A   Scattered Clouds
7:56 AM 28.0 °F 22.8 °F 27.1 °F 96% 30.27 in 5.0 mi NE 4.6 mph - N/A   Partly Cloudy
8:56 AM 34.9 °F - 32.0 °F 89% 30.28 in 6.0 mi Calm Calm - N/A   Clear
9:56 AM 41.0 °F - 34.0 °F 76% 30.27 in 6.0 mi Calm Calm - N/A   Haze
10:56 AM 43.9 °F 41.3 °F 34.9 °F 71% 30.26 in 7.0 mi WNW 4.6 mph - N/A   Clear
11:56 AM 45.9 °F 43.6 °F 34.9 °F 66% 30.23 in 10.0 mi WSW 4.6 mph - N/A   Clear
12:56 PM 46.9 °F - 32.0 °F 56% 30.23 in 10.0 mi Variable 3.5 mph - N/A   Clear
1:56 PM 50.0 °F - 32.0 °F 50% 30.22 in 10.0 mi Calm Calm - N/A   Clear
3:56 PM 45.9 °F 42.9 °F 32.9 °F 61% 30.24 in 10.0 mi WNW 5.8 mph - N/A   Clear
4:56 PM 41.0 °F 39.0 °F 31.1 °F 68% 30.25 in 10.0 mi NNW 3.5 mph - N/A   Clear
5:56 PM 34.9 °F - 30.0 °F 82% 30.26 in 10.0 mi Calm Calm - N/A   Clear
6:56 PM 32.9 °F - 30.0 °F 89% 30.27 in 8.0 mi Calm Calm - N/A   Clear
7:56 PM 30.0 °F - 28.0 °F 92% 30.27 in 10.0 mi Calm Calm - N/A   Clear
8:56 PM 31.1 °F 26.4 °F 29.1 °F 92% 30.27 in 8.0 mi East 4.6 mph - N/A   Clear
9:56 PM 30.0 °F 25.2 °F 28.0 °F 92% 30.27 in 6.0 mi ENE 4.6 mph - N/A   Clear
10:56 PM 31.1 °F 25.4 °F 28.0 °F 88% 30.27 in 7.0 mi East 5.8 mph - N/A   Clear
11:56 PM 30.0 °F 23.2 °F 28.0 °F 92% 30.26 in 8.0 mi East 6.9 mph - N/A   Clear